星链-5771 (STARLINK-5771 )

导读 | 豆包AI

STARLINK-5771是美国太空探索技术公司(SpaceX)于2023年3月24日发射的星链低轨通信卫星,属于Starlink星座组网卫星之一,服役于星链一代项目。它运行在近地轨道,依托星链星座的大规模组网能力,可为全球偏远地区、海上航运、航空等场景提供高速低延迟的互联网接入服务,同时具备一定军事通信应用潜力。大规模星链组网在推动卫星互联网发展的同时,也引发了太空碎片、轨道安全等领域的争议。

基本信息
目录编号:
56023
目录名称:
STARLINK-5771
国际标识:
2023-042AP
轨道中心:
EARTH
卫星名称:
星链-5771
卫星全名:
星链-5771 (STARLINK-5771 )
卫星状态:
在轨 (已飞行1087 天)
发射日期:
2023-03-24 UTC
国别 :
美国 (US)
星等 :
--
轨道信息
数据来源 国际轨道数据
星历时间: 2026-03-15T22:00:02+0800
7小时前
查看轨道信息
半长轴: 6912.375km
偏心率: 0.000047
轨道倾角: 43.002°
近地点辐角 295.554°
升交点赤经 10.968°
平近点角 227.421°
近地点: 533.913km
远地点: 534.563km
周期: 95.324分钟
每日圈数: 15.106431
详细信息
固有亮度:
5
最大亮度:
2.5
卫星平台:
Starlink v1.5
覆盖范围:
全球
运营商:
太空探索技术公司
运营商所在国:
美国
制造商(研发单位):
太空探索技术公司
制造商所在国:
美国
使用方式:
暂无
卫星简介
星链(Starlink)计划是由太空探索技术公司(SpaceX)提出的一个巨型低轨卫星互联网星座项目,计划在2019年至2024年间在太空搭建由约1.2万颗卫星组成的“星链”网络,其中1584颗将部署在地球上空550千米处的近地轨道,并从2020年开始工作。该卫星仍在工作。
2D轨道图
3D轨道图
轨道高度分析图
轨道倾角分析图
轨道综合分析图
查看轨道综合分析图